Weather in Malyy Konyp

Russia / Kirov Oblast     58°26′36″N   50°21′27″E
temp.,
°C
wind,
m/s
gust,
m/s
humid.,
%
clouds,
%
prec.,
mm/h
press.,
hPa
HPBL,
m
16 april, fri
fri1600:00+5ne41185100 0.0 1026669
03:00+2ne4117898 0.0 1028487
06:00+1ne411835 0.0 1029466
09:00+5ene47601 0.0 1030807
12:00+8ne45490 0.0 10301087
15:00+8ne45464 0.0 10301127
18:00+5nne26675 0.0 1030130
21:00+1ne25815 0.0 103184
17 april, sat
sat1700:00−1ne22872 0.0 103133
03:00−1nne11905 0.0 103114
06:00+1nne12773 0.0 103183
09:00+7n24585 0.0 1031685
12:00+9n23525 0.0 10301228
15:00+10nnw34505 0.0 10281423
18:00+7nw22685 0.0 102729
21:00+4nnw26805 0.0 102897
18 april, sun
sun1800:00+3nnw23850 0.0 102745
03:00+2nnw23900 0.0 102848
06:00+3nne310885 0.0 1029458
09:00+5ne4666100 0.0 10301122
12:00+6ne56415 0.0 10311434
15:00+6ne56375 0.0 10311645
18:00+4ne48485 0.0 1032440
21:00+1ene310600 0.0 1034340
19 april, mon
mon1900:000ene411650 0.0 1035379
03:00−1ene310650 0.0 1037354
06:000e49570 0.0 1037449
09:00+4e46425 0.0 10381378
12:00+6ese45353 0.0 10371685
15:00+7ese343499 0.0 10371688
18:00+5se24470 0.0 103784
21:00+1ese24560 0.0 103757
20 april, tue
tue2000:000se22600 0.0 103837
03:00−1ese22560 0.0 103841
06:00+1ese26470 0.0 1038207
09:00+5se45290 0.0 1037923
12:00+8se45270 0.0 10351265
15:00+9se35290 0.0 10331355
18:00+7se23473 0.0 103268
21:00+3se256120 0.0 103275